Location: Chefe Valiua
(16.5342°S, 37.2214°E)
Time: 13:57:39
(UTC+00:00)

Aurora 2 Rocket - Visible Passes

Search period start: 06 May 2021 00:00
Search period end: 16 May 2021 00:00
Orbit: 390 x 1738 km, 25.0° (Epoch: 05 May)

Date Brightness Start Highest point End Pass type
(mag) Time Alt. Az. Time Alt. Az. Time Alt. Az.
06 May 5.7 00:28:40 24° NE 00:28:40 24° NE 00:31:53 10° ENE visible
06 May 5.1 02:15:06 21° NW 02:18:12 27° NNW 02:25:48 10° NNE visible
06 May 2.6 15:46:34 10° NW 15:50:36 45° NNE 15:53:10 15° E visible
07 May 5.0 01:18:41 30° N 01:18:41 30° N 01:24:41 10° NE visible
07 May 5.9 03:08:31 10° NW 03:12:11 13° NNW 03:16:14 10° N visible
07 May 2.4 16:39:47 10° W 16:43:15 53° SW 16:43:15 53° SW visible
08 May 6.1 00:22:14 14° NE 00:22:14 14° NE 00:23:30 10° NE visible
08 May 5.5 02:08:40 14° NW 02:11:04 16° NNW 02:16:00 10° NNE visible
08 May 2.2 15:38:58 10° WNW 15:43:42 88° NNE 15:46:53 13° ESE visible
09 May 5.6 01:12:12 17° N 01:12:12 17° N 01:15:24 10° NNE visible
09 May 2.9 16:32:47 10° W 16:36:42 36° SSW 16:36:56 36° S visible
10 May 2.8 15:31:34 10° W 15:36:44 58° SSW 15:40:29 10° ESE visible
10 May 5.3 17:26:57 10° WSW 17:26:59 10° WSW 17:26:59 10° WSW visible
11 May 3.4 16:25:47 10° WSW 16:29:50 29° SSW 16:30:34 27° S visible
12 May 3.5 15:24:14 10° W 15:29:43 43° SSW 15:33:41 10° SE visible
12 May 5.1 17:19:57 10° WSW 17:20:36 13° SW 17:20:36 13° SW visible
13 May 3.7 16:18:39 10° WSW 16:22:59 27° S 16:24:11 24° SSE visible
14 May 4.8 17:12:41 10° WSW 17:14:12 17° SW 17:14:12 17° SW visible
15 May 3.8 16:11:20 10° WSW 16:16:09 29° S 16:17:48 23° SSE visible
